AUA785 EDDS-LOWW

Flight info

Callsign AUA785
Flight time 1h 1m
Altitude 31000
Route ABTAL4B ABTAL L173 RIXED Y161 RIDAR Z98 MIQ L605 BIBAG Q104 AKIMA DCT MASUR MASUR3W
Aircraft A320/M-SDE3FGHIRWY/LB1

Departure

Time 2026-04-25 22:30
Airport Stuttgart Airport (EDDS)

Arrival

Time 2026-04-25 23:31
Airport Vienna International Airport (LOWW)
Time Latitude Longitude Altitude Speed Heading
2026-04-25 21:52 48.68858 9.19294 1290 ft 0 kts 344°
2026-04-25 22:14 48.68856 9.19295 1290 ft 2 kts 344°
2026-04-25 22:14 48.68841 9.19301 1290 ft 0 kts 344°
2026-04-25 22:15 48.68835 9.19304 1289 ft 2 kts 344°
2026-04-25 22:16 48.68803 9.19317 1288 ft 2 kts 25°
2026-04-25 22:16 48.68790 9.19300 1286 ft 2 kts 76°
2026-04-25 22:16 48.68790 9.19296 1286 ft 0 kts 76°
2026-04-25 22:21 48.68805 9.19387 1290 ft 17 kts 76°
2026-04-25 22:21 48.68835 9.19574 1288 ft 20 kts 77°
2026-04-25 22:22 48.68846 9.19644 1285 ft 1 kts 75°
2026-04-25 22:22 48.68871 9.19728 1288 ft 14 kts 74°
2026-04-25 22:22 48.68878 9.19864 1285 ft 12 kts 124°
2026-04-25 22:22 48.68824 9.19958 1285 ft 15 kts 85°
2026-04-25 22:23 48.68861 9.20164 1290 ft 23 kts 73°
2026-04-25 22:23 48.68904 9.20394 1287 ft 22 kts 76°
2026-04-25 22:23 48.68946 9.20620 1285 ft 22 kts 74°
2026-04-25 22:23 48.68988 9.20840 1288 ft 22 kts 73°
2026-04-25 22:24 48.69030 9.21057 1285 ft 21 kts 75°
2026-04-25 22:24 48.69069 9.21272 1288 ft 21 kts 73°
2026-04-25 22:24 48.69111 9.21483 1289 ft 22 kts 73°
2026-04-25 22:24 48.69156 9.21732 1287 ft 25 kts 74°
2026-04-25 22:25 48.69207 9.21981 1285 ft 24 kts 69°
2026-04-25 22:25 48.69252 9.22220 1288 ft 23 kts 74°
2026-04-25 22:25 48.69295 9.22455 1290 ft 23 kts 75°
2026-04-25 22:25 48.69342 9.22712 1288 ft 29 kts 75°
2026-04-25 22:26 48.69406 9.23036 1285 ft 35 kts 73°
2026-04-25 22:26 48.69478 9.23421 1285 ft 40 kts 73°
2026-04-25 22:26 48.69560 9.23849 1287 ft 44 kts 74°
2026-04-25 22:26 48.69588 9.24197 1288 ft 26 kts 125°
2026-04-25 22:27 48.69497 9.24313 1287 ft 8 kts 163°
2026-04-25 22:27 48.69495 9.24314 1287 ft 0 kts 163°
2026-04-25 22:27 48.69488 9.24317 1285 ft 4 kts 163°
2026-04-25 22:28 48.69428 9.24333 1287 ft 13 kts 193°
2026-04-25 22:28 48.69368 9.24204 1285 ft 20 kts 259°
2026-04-25 22:28 48.69333 9.24019 1288 ft 16 kts 252°
2026-04-25 22:28 48.69310 9.23892 1287 ft 11 kts 255°
2026-04-25 22:29 48.69299 9.23833 1286 ft 0 kts 255°
2026-04-25 22:29 48.69299 9.23828 1286 ft 4 kts 255°
2026-04-25 22:29 48.69232 9.23471 1289 ft 74 kts 254°
2026-04-25 22:30 48.68719 9.20831 1506 ft 166 kts 252°
2026-04-25 22:30 48.68378 9.19098 2051 ft 178 kts 254°
2026-04-25 22:30 48.68030 9.17241 2670 ft 188 kts 255°
2026-04-25 22:30 48.67789 9.15963 3091 ft 193 kts 254°
2026-04-25 22:31 48.67266 9.13312 3981 ft 198 kts 253°
2026-04-25 22:31 48.66813 9.11293 4462 ft 211 kts 245°
2026-04-25 22:31 48.65855 9.09507 4781 ft 232 kts 213°
2026-04-25 22:31 48.64262 9.08842 4847 ft 246 kts 175°
2026-04-25 22:32 48.62681 9.09770 4853 ft 248 kts 142°
2026-04-25 22:32 48.61616 9.11754 4857 ft 249 kts 113°
2026-04-25 22:32 48.61338 9.14378 4899 ft 263 kts 83°
2026-04-25 22:32 48.61596 9.17140 5654 ft 272 kts 84°
2026-04-25 22:33 48.61746 9.20016 6571 ft 277 kts 86°
2026-04-25 22:33 48.61840 9.22944 7488 ft 281 kts 87°
2026-04-25 22:33 48.62047 9.25892 8385 ft 284 kts 78°
2026-04-25 22:33 48.62647 9.28753 9248 ft 288 kts 67°
2026-04-25 22:34 48.63425 9.31561 10110 ft 292 kts 67°
2026-04-25 22:34 48.64254 9.34505 10473 ft 316 kts 66°
2026-04-25 22:34 48.65146 9.37652 10869 ft 333 kts 66°
2026-04-25 22:34 48.66069 9.40901 10980 ft 337 kts 66°
2026-04-25 22:35 48.66993 9.44159 11009 ft 337 kts 66°
2026-04-25 22:35 48.67927 9.47459 11009 ft 337 kts 66°
2026-04-25 22:35 48.68838 9.50689 11009 ft 337 kts 67°
2026-04-25 22:35 48.69760 9.53970 11431 ft 341 kts 67°
2026-04-25 22:36 48.70690 9.57287 12288 ft 344 kts 67°
2026-04-25 22:36 48.71580 9.60468 13047 ft 347 kts 67°
2026-04-25 22:36 48.72521 9.63842 13773 ft 351 kts 67°
2026-04-25 22:36 48.73475 9.67272 14479 ft 355 kts 67°
2026-04-25 22:37 48.74438 9.70736 15164 ft 359 kts 67°
2026-04-25 22:37 48.75409 9.74239 15837 ft 363 kts 67°
2026-04-25 22:37 48.76391 9.77777 16495 ft 366 kts 67°
2026-04-25 22:37 48.77385 9.81356 17246 ft 370 kts 67°
2026-04-25 22:38 48.78386 9.84974 17900 ft 374 kts 67°
2026-04-25 22:38 48.79394 9.88618 18515 ft 377 kts 67°
2026-04-25 22:38 48.80415 9.92310 19106 ft 381 kts 67°
2026-04-25 22:38 48.81439 9.96032 19685 ft 384 kts 67°
2026-04-25 22:39 48.82469 9.99787 20253 ft 387 kts 67°
2026-04-25 22:39 48.83510 10.03583 20790 ft 391 kts 67°
2026-04-25 22:39 48.84480 10.07452 21314 ft 394 kts 73°
2026-04-25 22:39 48.85016 10.11487 21813 ft 397 kts 84°
2026-04-25 22:40 48.85062 10.15696 22297 ft 401 kts 95°
2026-04-25 22:40 48.84738 10.19920 22771 ft 404 kts 97°
2026-04-25 22:40 48.84392 10.24165 23241 ft 407 kts 97°
2026-04-25 22:40 48.84043 10.28444 23714 ft 410 kts 97°
2026-04-25 22:41 48.83691 10.32755 24167 ft 413 kts 97°
2026-04-25 22:41 48.83198 10.37063 24600 ft 416 kts 105°
2026-04-25 22:41 48.82219 10.41200 25032 ft 418 kts 115°
2026-04-25 22:41 48.80762 10.45015 25453 ft 420 kts 126°
2026-04-25 22:42 48.78869 10.48413 25857 ft 422 kts 134°
2026-04-25 22:42 48.76835 10.51644 26249 ft 425 kts 134°
2026-04-25 22:42 48.74789 10.54902 26638 ft 428 kts 134°
2026-04-25 22:42 48.72736 10.58179 27024 ft 430 kts 134°
2026-04-25 22:43 48.70668 10.61487 27407 ft 432 kts 134°
2026-04-25 22:43 48.68597 10.64787 27769 ft 435 kts 134°
2026-04-25 22:43 48.66509 10.68112 28127 ft 437 kts 134°
2026-04-25 22:43 48.64408 10.71454 28490 ft 439 kts 134°
2026-04-25 22:44 48.62355 10.74896 28833 ft 442 kts 128°
2026-04-25 22:44 48.60686 10.78735 29154 ft 444 kts 118°
2026-04-25 22:44 48.59542 10.83144 29468 ft 447 kts 103°
2026-04-25 22:44 48.59088 10.87790 29771 ft 449 kts 96°
2026-04-25 22:45 48.58770 10.92498 30075 ft 451 kts 95°
2026-04-25 22:45 48.58473 10.97164 30360 ft 453 kts 95°
2026-04-25 22:45 48.58178 11.01919 30646 ft 455 kts 95°
2026-04-25 22:45 48.57881 11.06690 30908 ft 457 kts 95°
2026-04-25 22:46 48.57285 11.16128 31010 ft 442 kts 95°
2026-04-25 22:46 48.56690 11.25294 31009 ft 437 kts 96°
2026-04-25 22:47 48.56083 11.34430 31009 ft 437 kts 96°
2026-04-25 22:47 48.55471 11.43542 30609 ft 435 kts 96°
2026-04-25 22:48 48.55166 11.48087 30140 ft 435 kts 96°
2026-04-25 22:48 48.54860 11.52640 30263 ft 436 kts 96°
2026-04-25 22:48 48.54549 11.57195 30508 ft 437 kts 96°
2026-04-25 22:48 48.54234 11.61759 30763 ft 437 kts 96°
2026-04-25 22:49 48.53920 11.66330 30933 ft 438 kts 96°
2026-04-25 22:49 48.53712 11.69367 30841 ft 439 kts 96°
2026-04-25 22:49 48.53082 11.78484 30972 ft 437 kts 96°
2026-04-25 22:50 48.52758 11.83055 30800 ft 438 kts 96°
2026-04-25 22:50 48.52430 11.87613 30649 ft 437 kts 96°
2026-04-25 22:50 48.52101 11.92181 30499 ft 438 kts 96°
2026-04-25 22:50 48.51772 11.96742 30625 ft 437 kts 96°
2026-04-25 22:51 48.51441 12.01297 30871 ft 437 kts 96°
2026-04-25 22:51 48.51107 12.05852 30986 ft 437 kts 96°
2026-04-25 22:51 48.50438 12.14961 31009 ft 437 kts 96°
2026-04-25 22:52 48.49770 12.24067 31009 ft 437 kts 96°
2026-04-25 22:52 48.49092 12.33178 31009 ft 437 kts 96°
2026-04-25 22:53 48.48409 12.42221 31009 ft 437 kts 96°
2026-04-25 22:53 48.47714 12.51312 31005 ft 436 kts 96°
2026-04-25 22:54 48.47010 12.60402 31001 ft 436 kts 96°
2026-04-25 22:54 48.46304 12.69476 30998 ft 436 kts 97°
2026-04-25 22:55 48.45584 12.78634 31033 ft 442 kts 97°
2026-04-25 22:55 48.45225 12.83200 30656 ft 437 kts 97°
2026-04-25 22:55 48.44864 12.87747 29944 ft 437 kts 97°
2026-04-25 22:56 48.44500 12.92297 29174 ft 438 kts 97°
2026-04-25 22:56 48.44131 12.96853 28748 ft 438 kts 97°
2026-04-25 22:56 48.43759 13.01436 29075 ft 441 kts 97°
2026-04-25 22:56 48.43384 13.06021 29455 ft 443 kts 97°
2026-04-25 22:57 48.43004 13.10634 29811 ft 444 kts 97°
2026-04-25 22:57 48.42621 13.15244 30272 ft 443 kts 97°
2026-04-25 22:57 48.42237 13.19839 30723 ft 442 kts 97°
2026-04-25 22:57 48.41858 13.24374 30957 ft 442 kts 97°
2026-04-25 22:58 48.41456 13.33578 31009 ft 441 kts 85°
2026-04-25 22:58 48.41714 13.42759 31007 ft 440 kts 99°
2026-04-25 22:59 48.39883 13.51532 31009 ft 440 kts 110°
2026-04-25 22:59 48.37804 13.60205 31009 ft 440 kts 110°
2026-04-25 23:00 48.35720 13.68871 31009 ft 441 kts 110°
2026-04-25 23:00 48.33634 13.77534 31009 ft 441 kts 110°
2026-04-25 23:01 48.31546 13.86191 31009 ft 440 kts 110°
2026-04-25 23:01 48.29457 13.94842 31009 ft 440 kts 110°
2026-04-25 23:02 48.27366 14.03488 31009 ft 440 kts 110°
2026-04-25 23:02 48.25275 14.12122 31009 ft 440 kts 110°
2026-04-25 23:03 48.23194 14.20708 31009 ft 440 kts 110°
2026-04-25 23:03 48.21097 14.29342 31009 ft 440 kts 110°
2026-04-25 23:04 48.19001 14.37967 31009 ft 440 kts 110°
2026-04-25 23:04 48.16902 14.46590 31009 ft 440 kts 110°
2026-04-25 23:05 48.14802 14.55205 31009 ft 440 kts 110°
2026-04-25 23:05 48.12700 14.63820 31009 ft 441 kts 110°
2026-04-25 23:06 48.11649 14.68121 30808 ft 438 kts 110°
2026-04-25 23:06 48.10763 14.72403 30096 ft 437 kts 100°
2026-04-25 23:06 48.10596 14.76927 29389 ft 436 kts 84°
2026-04-25 23:06 48.11258 14.81317 28821 ft 431 kts 69°
2026-04-25 23:07 48.12649 14.85265 28242 ft 427 kts 57°
2026-04-25 23:07 48.14086 14.89137 27645 ft 424 kts 69°
2026-04-25 23:07 48.14707 14.93406 27079 ft 419 kts 88°
2026-04-25 23:07 48.14409 14.97717 26502 ft 415 kts 106°
2026-04-25 23:08 48.13268 15.01659 25917 ft 411 kts 119°
2026-04-25 23:08 48.11858 15.05370 25310 ft 409 kts 120°
2026-04-25 23:08 48.10440 15.09039 24732 ft 406 kts 120°
2026-04-25 23:08 48.09032 15.12673 24166 ft 402 kts 120°
2026-04-25 23:09 48.07633 15.16281 23603 ft 399 kts 120°
2026-04-25 23:09 48.06247 15.19851 23055 ft 396 kts 120°
2026-04-25 23:09 48.04888 15.23350 22523 ft 393 kts 120°
2026-04-25 23:09 48.03504 15.26910 21986 ft 390 kts 120°
2026-04-25 23:10 48.02147 15.30399 21458 ft 387 kts 120°
2026-04-25 23:10 48.00815 15.33823 20941 ft 385 kts 120°
2026-04-25 23:10 47.99477 15.37260 20453 ft 382 kts 120°
2026-04-25 23:10 47.98149 15.40672 19947 ft 379 kts 120°
2026-04-25 23:11 47.96847 15.44062 19624 ft 372 kts 117°
2026-04-25 23:11 47.96067 15.47675 19270 ft 365 kts 98°
2026-04-25 23:11 47.95779 15.51427 18834 ft 362 kts 95°
2026-04-25 23:11 47.95541 15.55154 18393 ft 359 kts 95°
2026-04-25 23:12 47.95309 15.58852 17941 ft 357 kts 95°
2026-04-25 23:12 47.95079 15.62526 17496 ft 355 kts 95°
2026-04-25 23:12 47.94849 15.66188 17034 ft 354 kts 95°
2026-04-25 23:12 47.94621 15.69830 16582 ft 352 kts 95°
2026-04-25 23:13 47.94394 15.73440 16184 ft 348 kts 95°
2026-04-25 23:13 47.94169 15.77025 15767 ft 346 kts 95°
2026-04-25 23:13 47.93945 15.80586 15349 ft 344 kts 95°
2026-04-25 23:13 47.93721 15.84138 14908 ft 343 kts 95°
2026-04-25 23:14 47.93499 15.87660 14516 ft 340 kts 95°
2026-04-25 23:14 47.93278 15.91160 14120 ft 338 kts 95°
2026-04-25 23:14 47.93058 15.94637 13705 ft 336 kts 95°
2026-04-25 23:14 47.92842 15.98047 13311 ft 334 kts 95°
2026-04-25 23:15 47.92625 16.01482 12910 ft 331 kts 95°
2026-04-25 23:15 47.92408 16.04892 12502 ft 329 kts 95°
2026-04-25 23:15 47.92193 16.08275 12108 ft 327 kts 95°
2026-04-25 23:15 47.91979 16.11646 11712 ft 325 kts 95°
2026-04-25 23:16 47.91766 16.14988 11305 ft 323 kts 95°
2026-04-25 23:16 47.91554 16.18304 10896 ft 321 kts 95°
2026-04-25 23:16 47.91344 16.21600 10488 ft 318 kts 95°
2026-04-25 23:16 47.91134 16.24873 10075 ft 316 kts 95°
2026-04-25 23:17 47.90926 16.28127 9661 ft 314 kts 95°
2026-04-25 23:17 47.90719 16.31361 9240 ft 312 kts 95°
2026-04-25 23:17 47.90513 16.34573 8816 ft 310 kts 95°
2026-04-25 23:17 47.90308 16.37758 8389 ft 308 kts 95°
2026-04-25 23:18 47.90104 16.40934 7961 ft 306 kts 95°
2026-04-25 23:18 47.89904 16.44037 7570 ft 303 kts 95°
2026-04-25 23:18 47.89706 16.47100 7443 ft 290 kts 95°
2026-04-25 23:18 47.89518 16.50027 7314 ft 278 kts 95°
2026-04-25 23:19 47.89335 16.52850 7067 ft 271 kts 95°
2026-04-25 23:19 47.89155 16.55637 6707 ft 269 kts 95°
2026-04-25 23:19 47.88975 16.58409 6333 ft 267 kts 95°
2026-04-25 23:19 47.88792 16.61153 6039 ft 264 kts 98°
2026-04-25 23:20 47.88238 16.63755 6015 ft 265 kts 113°
2026-04-25 23:20 47.87749 16.66399 6016 ft 266 kts 98°
2026-04-25 23:20 47.87536 16.69141 6019 ft 272 kts 95°
2026-04-25 23:20 47.87659 16.71918 6015 ft 268 kts 78°
2026-04-25 23:21 47.88083 16.74613 6015 ft 267 kts 76°
2026-04-25 23:21 47.88536 16.77290 6016 ft 266 kts 76°
2026-04-25 23:21 47.88993 16.79967 6016 ft 266 kts 76°
2026-04-25 23:21 47.89436 16.82566 5987 ft 256 kts 76°
2026-04-25 23:22 47.89841 16.84981 5835 ft 246 kts 76°
2026-04-25 23:22 47.90257 16.87415 5560 ft 242 kts 76°
2026-04-25 23:22 47.90672 16.89842 5209 ft 241 kts 76°
2026-04-25 23:23 47.91499 16.94666 4584 ft 239 kts 73°
2026-04-25 23:23 47.92294 16.96792 4286 ft 236 kts 43°
2026-04-25 23:23 47.93648 16.98150 3969 ft 235 kts 27°
2026-04-25 23:23 47.95100 16.99251 3752 ft 231 kts 26°
2026-04-25 23:24 47.96548 17.00162 3621 ft 221 kts
2026-04-25 23:24 47.98022 16.99958 3501 ft 211 kts 334°
2026-04-25 23:24 47.99087 16.98569 3373 ft 203 kts 298°
2026-04-25 23:24 47.99371 16.96581 3243 ft 195 kts 266°
2026-04-25 23:25 47.99273 16.94585 3139 ft 190 kts 265°
2026-04-25 23:25 47.99396 16.92649 3059 ft 188 kts 289°
2026-04-25 23:25 47.99948 16.90891 3012 ft 187 kts 296°
2026-04-25 23:25 48.00526 16.89157 3014 ft 187 kts 296°
2026-04-25 23:26 48.01108 16.87398 3022 ft 197 kts 296°
2026-04-25 23:26 48.01733 16.85507 3016 ft 205 kts 296°
2026-04-25 23:26 48.02336 16.83681 3005 ft 186 kts 296°
2026-04-25 23:26 48.02880 16.82032 3003 ft 168 kts 296°
2026-04-25 23:27 48.03378 16.80520 3005 ft 158 kts 296°
2026-04-25 23:27 48.03843 16.79113 3000 ft 146 kts 296°
2026-04-25 23:27 48.04276 16.77800 3004 ft 141 kts 296°
2026-04-25 23:27 48.04724 16.76441 3033 ft 148 kts 296°
2026-04-25 23:28 48.05181 16.75056 3025 ft 148 kts 296°
2026-04-25 23:28 48.05638 16.73672 3016 ft 149 kts 296°
2026-04-25 23:28 48.06133 16.72157 3033 ft 171 kts 296°
2026-04-25 23:28 48.06641 16.70598 3020 ft 167 kts 296°
2026-04-25 23:29 48.07180 16.68935 2796 ft 186 kts 295°
2026-04-25 23:29 48.07719 16.67214 2344 ft 177 kts 295°
2026-04-25 23:29 48.08267 16.65659 1986 ft 162 kts 297°
2026-04-25 23:29 48.08740 16.64220 1739 ft 148 kts 294°
2026-04-25 23:30 48.09156 16.62853 1442 ft 142 kts 296°
2026-04-25 23:30 48.09610 16.61563 1176 ft 137 kts 297°
2026-04-25 23:30 48.10027 16.60317 1000 ft 134 kts 294°
2026-04-25 23:30 48.10417 16.59044 883 ft 136 kts 296°
2026-04-25 23:31 48.10836 16.57773 695 ft 136 kts 295°
2026-04-25 23:31 48.11229 16.56553 626 ft 118 kts 296°
2026-04-25 23:31 48.11520 16.55677 627 ft 69 kts 296°
2026-04-25 23:31 48.11677 16.55194 623 ft 44 kts 296°
2026-04-25 23:32 48.11803 16.54818 608 ft 38 kts 302°
2026-04-25 23:32 48.11975 16.54577 614 ft 27 kts 326°
2026-04-25 23:32 48.12020 16.54545 613 ft 0 kts 346°
2026-04-25 23:33 48.12021 16.54544 612 ft 1 kts 347°
2026-04-25 23:34 48.12056 16.54552 612 ft 10 kts 18°
2026-04-25 23:34 48.12070 16.54564 610 ft 1 kts 34°
2026-04-25 23:34 48.12069 16.54638 606 ft 14 kts 115°
2026-04-25 23:34 48.12003 16.54833 622 ft 27 kts 116°
2026-04-25 23:35 48.11923 16.55079 618 ft 26 kts 115°
2026-04-25 23:35 48.11845 16.55320 620 ft 25 kts 116°
2026-04-25 23:35 48.11769 16.55554 623 ft 24 kts 117°
2026-04-25 23:35 48.11698 16.55770 624 ft 23 kts 116°
2026-04-25 23:36 48.11633 16.55970 620 ft 21 kts 117°
2026-04-25 23:36 48.11591 16.56102 622 ft 18 kts 111°
2026-04-25 23:36 48.11622 16.56201 615 ft 0 kts 33°
2026-04-25 23:37 48.11664 16.56245 619 ft 16 kts 30°
2026-04-25 23:38 48.11746 16.56311 616 ft 6 kts 28°
2026-04-25 23:38 48.11759 16.56374 612 ft 9 kts 97°
2026-04-25 23:38 48.11712 16.56507 619 ft 20 kts 118°
2026-04-25 23:38 48.11643 16.56712 617 ft 8 kts 113°
2026-04-25 23:39 48.11647 16.56726 617 ft 1 kts 17°
2026-04-25 23:39 48.11698 16.56711 609 ft 12 kts 29°
2026-04-25 23:39 48.11739 16.56743 602 ft 2 kts 24°
2026-04-25 23:39 48.11740 16.56743 602 ft 2 kts 24°
2026-04-25 23:40 48.11739 16.56743 602 ft 0 kts 24°